EN

Hourly Weather Labé

Today, 26 July, Monday

Time Temperature Precipitation Wind Pressure Humidity
00:00 +21°C° 1.1 mm 1 mps 674 mmHg 97%
01:00 +20°C° 1.1 mm 1 mps 673 mmHg 97%
02:00 +20°C° 1.1 mm 1 mps 673 mmHg 97%
03:00 +20°C° 0.3 mm 1 mps 673 mmHg 98%
04:00 +20°C° 0.3 mm 1 mps 673 mmHg 98%
05:00 +20°C° 0.3 mm 1 mps 673 mmHg 98%
06:00 +20°C° 0.3 mm 1 mps 673 mmHg 96%
07:00 +21°C° 0.3 mm 1 mps 674 mmHg 93%
08:00 +20°C° 0.3 mm 0 mps 674 mmHg 91%
09:00 +21°C° 0.2 mm 0 mps 674 mmHg 86%
10:00 +25°C° 0.2 mm 1 mps 675 mmHg 81%
11:00 +26°C° 0.2 mm 1 mps 675 mmHg 76%
12:00 +26°C° 1.7 mm 1 mps 674 mmHg 78%
13:00 +26°C° 1.7 mm 1 mps 674 mmHg 79%
14:00 +26°C° 1.7 mm 1 mps 673 mmHg 80%
15:00 +25°C° 2.5 mm 1 mps 673 mmHg 84%
16:00 +24°C° 2.5 mm 1 mps 673 mmHg 87%
17:00 +23°C° 2.5 mm 1 mps 672 mmHg 90%
18:00 +23°C° 1.7 mm 1 mps 673 mmHg 92%
19:00 +20°C° 1.7 mm 0 mps 673 mmHg 93%
20:00 +19°C° 1.7 mm 0 mps 674 mmHg 94%
21:00 +19°C° 0.8 mm 0 mps 674 mmHg 95%
22:00 +21°C° 0.8 mm 1 mps 674 mmHg 96%
23:00 +20°C° 0.8 mm 1 mps 674 mmHg 97%

Tomorrow, 27 July, Tuesday

Time Temperature Precipitation Wind Pressure Humidity
00:00 +20°C° 0.3 mm 1 mps 674 mmHg 97%
01:00 +20°C° 0.3 mm 1 mps 673 mmHg 98%
02:00 +20°C° 0.3 mm 1 mps 673 mmHg 98%
03:00 +20°C° 0 mm 1 mps 673 mmHg 97%
04:00 +20°C° 0 mm 1 mps 673 mmHg 97%
05:00 +20°C° 0 mm 1 mps 673 mmHg 97%
06:00 +21°C° 0 mm 1 mps 674 mmHg 94%
07:00 +22°C° 0 mm 1 mps 674 mmHg 91%
08:00 +22°C° 0 mm 1 mps 674 mmHg 89%
09:00 +24°C° 0 mm 1 mps 675 mmHg 83%
10:00 +25°C° 0 mm 1 mps 675 mmHg 77%
11:00 +27°C° 0 mm 1 mps 675 mmHg 71%
12:00 +26°C° 0.6 mm 1 mps 674 mmHg 73%
13:00 +26°C° 0.6 mm 1 mps 674 mmHg 75%
14:00 +26°C° 0.6 mm 1 mps 673 mmHg 77%
15:00 +26°C° 1.8 mm 1 mps 673 mmHg 81%
16:00 +25°C° 1.8 mm 1 mps 673 mmHg 84%
17:00 +25°C° 1.8 mm 1 mps 673 mmHg 88%
18:00 +23°C° 2.2 mm 1 mps 673 mmHg 90%
19:00 +22°C° 2.2 mm 1 mps 673 mmHg 93%
20:00 +21°C° 2.2 mm 1 mps 674 mmHg 96%
21:00 +21°C° 0.7 mm 1 mps 674 mmHg 97%
22:00 +21°C° 0.7 mm 1 mps 674 mmHg 97%
23:00 +21°C° 0.7 mm 1 mps 674 mmHg 98%

Day after tomorrow, 28 July, Wednesday

Time Temperature Precipitation Wind Pressure Humidity
00:00 +21°C° 0.4 mm 1 mps 674 mmHg 98%
01:00 +20°C° 0.4 mm 1 mps 673 mmHg 98%
02:00 +20°C° 0.4 mm 1 mps 673 mmHg 98%
03:00 +20°C° 0.9 mm 1 mps 673 mmHg 98%
04:00 +20°C° 0.9 mm 1 mps 673 mmHg 98%
05:00 +20°C° 0.9 mm 1 mps 673 mmHg 98%
06:00 +21°C° 0.7 mm 1 mps 673 mmHg 97%
07:00 +21°C° 0.7 mm 1 mps 674 mmHg 96%
08:00 +21°C° 0.7 mm 1 mps 674 mmHg 95%
09:00 +22°C° 0.2 mm 1 mps 674 mmHg 93%
10:00 +22°C° 0.2 mm 1 mps 674 mmHg 91%
11:00 +23°C° 0.2 mm 1 mps 675 mmHg 88%
12:00 +23°C° 0.1 mm 1 mps 674 mmHg 86%
13:00 +24°C° 0.1 mm 1 mps 674 mmHg 83%
14:00 +24°C° 0.1 mm 1 mps 673 mmHg 80%
15:00 +24°C° 0.3 mm 1 mps 673 mmHg 84%
16:00 +23°C° 0.3 mm 1 mps 673 mmHg 88%
17:00 +23°C° 0.3 mm 1 mps 673 mmHg 92%
18:00 +22°C° 0.3 mm 1 mps 673 mmHg 93%
19:00 +21°C° 0.3 mm 1 mps 673 mmHg 95%
20:00 +21°C° 0.3 mm 1 mps 674 mmHg 97%
21:00 +21°C° 1.1 mm 1 mps 674 mmHg 97%
22:00 +20°C° 1.1 mm 1 mps 674 mmHg 98%
23:00 +20°C° 1.1 mm 1 mps 674 mmHg 98%

29 July, Thursday

Time Temperature Precipitation Wind Pressure Humidity
00:00 +20°C° 7.7 mm 1 mps 674 mmHg 98%
01:00 +20°C° 7.7 mm 1 mps 673 mmHg 98%
02:00 +18°C° 7.7 mm 0 mps 673 mmHg 98%
03:00 +18°C° 1.6 mm 0 mps 673 mmHg 98%
04:00 +18°C° 1.6 mm 0 mps 673 mmHg 98%
05:00 +18°C° 1.6 mm 0 mps 673 mmHg 98%
06:00 +18°C° 4 mm 0 mps 674 mmHg 98%
07:00 +18°C° 4 mm 0 mps 674 mmHg 98%
08:00 +18°C° 4 mm 0 mps 674 mmHg 98%
09:00 +19°C° 0.1 mm 0 mps 674 mmHg 93%
10:00 +21°C° 0.1 mm 0 mps 674 mmHg 88%
11:00 +22°C° 0.1 mm 0 mps 674 mmHg 83%
12:00 +22°C° 0.7 mm 0 mps 674 mmHg 83%
13:00 +24°C° 0.7 mm 1 mps 674 mmHg 83%
14:00 +25°C° 0.7 mm 1 mps 673 mmHg 83%
15:00 +24°C° 0.9 mm 1 mps 673 mmHg 85%
16:00 +22°C° 0.9 mm 0 mps 673 mmHg 88%
17:00 +21°C° 0.9 mm 0 mps 673 mmHg 90%
18:00 +22°C° 1.5 mm 1 mps 673 mmHg 93%
19:00 +21°C° 1.5 mm 1 mps 673 mmHg 95%
20:00 +20°C° 1.5 mm 1 mps 674 mmHg 97%
21:00 +20°C° 1.9 mm 1 mps 674 mmHg 98%
22:00 +20°C° 1.9 mm 1 mps 674 mmHg 98%
23:00 +20°C° 1.9 mm 1 mps 674 mmHg 98%

30 July, Friday

Time Temperature Precipitation Wind Pressure Humidity
00:00 +20°C° 1.1 mm 1 mps 674 mmHg 98%
01:00 +20°C° 1.1 mm 1 mps 673 mmHg 98%
02:00 +20°C° 1.1 mm 1 mps 673 mmHg 98%
03:00 +20°C° 2.2 mm 1 mps 673 mmHg 98%
04:00 +20°C° 2.2 mm 1 mps 673 mmHg 98%
05:00 +20°C° 2.2 mm 1 mps 673 mmHg 98%
06:00 +21°C° 0.2 mm 1 mps 674 mmHg 96%
07:00 +21°C° 0.2 mm 1 mps 674 mmHg 94%
08:00 +22°C° 0.2 mm 1 mps 674 mmHg 91%
09:00 +23°C° 0.4 mm 1 mps 674 mmHg 88%
10:00 +24°C° 0.4 mm 1 mps 674 mmHg 85%
11:00 +25°C° 0.4 mm 1 mps 674 mmHg 81%
12:00 +25°C° 1.7 mm 1 mps 674 mmHg 82%
13:00 +25°C° 1.7 mm 1 mps 674 mmHg 83%
14:00 +25°C° 1.7 mm 1 mps 673 mmHg 84%
15:00 +24°C° 4.3 mm 1 mps 673 mmHg 88%
16:00 +23°C° 4.3 mm 1 mps 673 mmHg 92%
17:00 +19°C° 4.3 mm 0 mps 673 mmHg 96%
18:00 +21°C° 2.7 mm 1 mps 673 mmHg 96%
19:00 +21°C° 2.7 mm 1 mps 674 mmHg 97%
20:00 +20°C° 2.7 mm 2 mps 674 mmHg 97%
21:00 +19°C° 0.2 mm 2 mps 674 mmHg 97%
22:00 +19°C° 0.2 mm 2 mps 674 mmHg 98%
23:00 +20°C° 0.2 mm 1 mps 674 mmHg 98%

31 July, Saturday

Time Temperature Precipitation Wind Pressure Humidity
00:00 +19°C° 0.1 mm 2 mps 674 mmHg 98%
01:00 +19°C° 0.1 mm 2 mps 673 mmHg 98%
02:00 +19°C° 0.1 mm 2 mps 673 mmHg 98%
03:00 +19°C° 0.1 mm 2 mps 673 mmHg 98%
04:00 +19°C° 0.1 mm 2 mps 673 mmHg 98%
05:00 +20°C° 0.1 mm 1 mps 674 mmHg 97%
06:00 +20°C° 0.2 mm 1 mps 674 mmHg 97%
07:00 +21°C° 0.2 mm 1 mps 674 mmHg 96%
08:00 +21°C° 0.2 mm 1 mps 675 mmHg 95%
09:00 +21°C° 0.4 mm 1 mps 675 mmHg 93%
10:00 +21°C° 0.4 mm 2 mps 675 mmHg 90%
11:00 +23°C° 0.4 mm 2 mps 675 mmHg 88%
12:00 +23°C° 0.9 mm 2 mps 675 mmHg 88%
13:00 +21°C° 0.9 mm 2 mps 674 mmHg 89%
14:00 +21°C° 0.9 mm 2 mps 674 mmHg 90%
15:00 +21°C° 1.3 mm 2 mps 674 mmHg 92%
16:00 +21°C° 1.3 mm 1 mps 674 mmHg 94%
17:00 +21°C° 1.3 mm 1 mps 674 mmHg 96%
18:00 +20°C° 2.1 mm 1 mps 674 mmHg 96%
19:00 +20°C° 2.1 mm 1 mps 675 mmHg 97%
20:00 +20°C° 2.1 mm 1 mps 675 mmHg 97%
21:00 +20°C° 1.4 mm 1 mps 675 mmHg 98%
22:00 +20°C° 1.4 mm 1 mps 675 mmHg 98%
23:00 +20°C° 1.4 mm 1 mps 675 mmHg 98%
Show more